Location: Unspecified
(0.0000°N, 0.0000°E)
Time: 01:23:40
(UTC+00:00)

Courier 1B Rocket - Pass Details

Date: 22 November 2019
Orbit: 920 x 1202 km, 28.2° (Epoch: 10 December)

Event Time Altitude Azimuth Distance (km) Brightness Sun altitude
Rises 07:31:49 0° 217° (SW) 3,600 7.8 24.7°
Reaches altitude 10° 07:35:09 10° 202° (SSW) 2,628 7.4 25.5°
Maximum altitude 07:39:46 21° 154° (SSE) 1,928 7.6 26.6°
Drops below altitude 10° 07:44:22 10° 106° (ESE) 2,607 9.0 27.6°
Sets 07:47:38 0° 90° (E) 3,563 9.0 28.4°
